Location: Sungai Apap
(2.6167°N, 113.3833°E)
Time: 16:26:30
(UTC+00:00)

USA 215 - Pass Details

Date: 25 May 2024
Orbit: 1100 x 1107 km, 123.0° (Epoch: 22 April)

Event Time Altitude Azimuth Distance (km) Brightness Sun altitude
Rises 19:40:28 0° 48° (NE) 3,905 7.1 -36.3°
Reaches altitude 10° 19:43:02 10° 54° (NE) 2,948 6.3 -35.7°
Maximum altitude 19:49:15 48° 126° (SE) 1,400 3.8 -34.4°
Enters shadow 19:49:25 48° 131° (SE) 1,402 3.8 -34.3°
